{"data":{"norad_id":61723,"epoch":"2026-05-25T02:40:05.476800Z","epoch_age_seconds":72549,"freshness":"FRESH","line1":"1 61723U 24196S   26145.11117450  .00004317  00000+0  15792-3 0  9990","line2":"2 61723  53.1617  70.5553 0001231  98.3613 261.7527 15.30170933 89353","mean_motion":15.30170933,"eccentricity":0.0001231,"inclination_deg":53.1617,"raan_deg":70.5553,"arg_perigee_deg":98.3613,"mean_anomaly_deg":261.7527,"bstar":0.00015792,"rev_number":8935,"period_min":94.107133323778,"perigee_km":474.4582012922,"apogee_km":476.14551793944,"semimajor_km":6853.4388596158,"source":"CELESTRAK","updated_at":"2026-05-25T13:38:19.447512Z"}}